Home > Weather > Prešov > Past weeks

Flag for Slovakia Weather for the Past 2 Weeks in Prešov, Slovakia

Now
39 °F

Overcast.


Feels Like: 39 °F
Forecast: 38 / 46 °F
Wind: 2 mph from North

Location: Kosice - Barca

Current Time: Feb 9, 2016 at 2:29:21 AM

Latest Report: Feb 9, 2016 at 2:00 AM


Visibility: N/A

Pressure: 29.86 "Hg

Humidity: 93%

Dew point: 37 °F

Location of PrešovLocation

Historic Weather in Prešov — Graph

°F

Prešov Temperature Yesterday

Maximum temperature yesterday: 39 °F (at 9:30 PM)
Minimum temperature yesterday: 34 °F (at 2:30 AM)
Average temperature yesterday: 36 °F

High & Low Weather Summary for the Past Weeks

 TemperatureHumidityPressure
High45 °F (Feb 3, 1:30 PM)100% (Jan 25, 6:00 AM)30.51 "Hg (Jan 25, 6:00 AM)
Low23 °F (Jan 25, 1:00 AM)45% (Feb 5, 3:00 PM)29.74 "Hg (Jan 31, 6:00 AM)
Average34 °F90%30.15 "Hg
* Reported Jan 25 1:00 AM — Feb 9 1:00 AM, Prešov, Weather by CustomWeather, © 2016

Note: Actual official high and low records may vary slightly from our data, if they occured in-between our weather recording intervals... More about our weather records

Advertising

Prešov Weather History for the Previous 24 Hours

 ConditionsComfort  
Time TempWeatherWind HumidityBarometerVisibility
1:00 AM
Tue, Feb 9
39 °FOvercast.6 mph100%29.86 "HgN/A
12:30 AM39 °FLight rain. Fog.3 mph100%29.89 "Hg2 mi
12:00 AM39 °FFog.5 mph93%29.89 "Hg3 mi
11:30 PM
Mon, Feb 8
39 °FLight rain. Fog.3 mph100%29.89 "Hg2 mi
11:00 PM39 °FLight rain. Overcast.3 mph100%29.89 "Hg2 mi
10:30 PM37 °FLight rain. Fog.3 mph93%29.89 "Hg2 mi
10:00 PM39 °FLight rain. Fog.3 mph100%29.92 "Hg3 mi
9:30 PM39 °FLight rain. Fog.6 mph93%29.92 "Hg3 mi
9:00 PM36 °FLight rain. Overcast.3 mph100%29.92 "Hg4 mi
8:30 PM36 °FLight rain. Mostly cloudy.5 mph100%29.95 "HgN/A
8:00 PM36 °FLight rain. Mostly cloudy.2 mph100%29.95 "HgN/A
7:30 PM36 °FLight rain. Mostly cloudy.5 mph93%29.95 "HgN/A
7:00 PM36 °FLight rain. Overcast.1 mph100%29.98 "HgN/A
6:30 PM36 °FLight rain. Mostly cloudy.3 mph93%29.98 "HgN/A
6:00 PM36 °FLight rain. Clear.2 mph93%29.98 "HgN/A
5:30 PM36 °FLight rain. Overcast.1 mph93%29.98 "HgN/A
5:00 PM36 °FLight rain. Overcast.2 mph93%29.98 "HgN/A
4:30 PM37 °FLight rain. Overcast.3 mph87%29.98 "HgN/A
4:00 PM37 °FLight rain. Mostly cloudy.5 mph87%29.98 "HgN/A
3:30 PM37 °FLight rain. Overcast.7 mph87%29.98 "HgN/A
3:00 PM37 °FLight rain. Overcast.5 mph87%30.01 "HgN/A
2:30 PM37 °FLight rain. Overcast.7 mph87%30.01 "HgN/A
2:00 PM37 °FLight rain. More clouds than sun.8 mph87%30.01 "HgN/A
1:30 PM37 °FOvercast.5 mph81%30.01 "HgN/A
1:00 PM37 °FOvercast.3 mph81%30.01 "HgN/A
12:30 PM37 °FLight rain. Overcast.5 mph81%30.04 "HgN/A
12:00 PM37 °FOvercast.5 mph81%30.04 "HgN/A
11:30 AM37 °FPartly sunny.6 mph81%30.04 "HgN/A
11:00 AM37 °FPartly sunny.3 mph81%30.04 "HgN/A
10:30 AM36 °FPartly sunny.6 mph81%30.04 "HgN/A
10:00 AM36 °FPartly sunny.6 mph81%30.04 "HgN/A
9:30 AM36 °FPartly sunny.7 mph81%30.04 "HgN/A
9:00 AM36 °FPartly sunny.9 mph81%30.04 "HgN/A
8:30 AM36 °FPartly sunny.7 mph87%30.04 "HgN/A
8:00 AM36 °FBroken clouds.7 mph81%30.04 "HgN/A
7:30 AM36 °FPartly sunny.8 mph81%30.04 "HgN/A
7:00 AM36 °FPartly sunny.9 mph81%30.04 "HgN/A
6:30 AM36 °FPassing clouds.6 mph81%30.04 "HgN/A
6:00 AM34 °FClear.3 mph87%30.04 "Hg10 mi
5:30 AM34 °FClear.2 mph87%30.01 "Hg10 mi
5:00 AM36 °FClear.1 mph81%30.04 "Hg10 mi
4:30 AM36 °FClear.1 mph81%30.01 "Hg10 mi
4:00 AM36 °FClear.5 mph81%30.04 "Hg10 mi
3:00 AM36 °FClear.3 mph87%30.04 "Hg10 mi
2:30 AM34 °FClear.2 mph93%30.04 "Hg10 mi
2:00 AM36 °FClear.6 mph87%30.04 "Hg10 mi
Weather by CustomWeather, © 2016

See weather overviewHow to use our weather pages